sat.trackr.live / text

‹ back to catalog

FLYING LAPTOP

NORAD 42831 · 2017-042G

PAYLOAD ACTIVE UNKNOWN

§ Identity

Operator
Country
GER
Launch date
2017-07-14
Launch site
TYMSC
Launch vehicle
Mass (kg)
RCS (m²)

Purposes: science, tech_demo

External: N2YO · Heavens-Above · Gunter

§ Orbital elements

Epoch: 2026-09-20T05:21:15.216192Z

Period
95.90 min
Inclination
97.5017°
Eccentricity
0.0017149
Mean motion
15.01608668 rev/d
Perigee alt
550.0 km
Apogee alt
573.8 km
Semi-major
6,940.1 km
B*
1.0225e-4
RAAN
55.3651°
Arg perigee
154.6277°
Mean anomaly
205.5794°
Rev number
50,071

§ Raw data

FLYING LAPTOP1 42831U 17042G   26263.22309278  .00001272  00000+0  10225-3 0  99982 42831  97.5017  55.3651 0017149 154.6277 205.5794 15.01608668500714

JSON: /api/v1/satellites/42831 · /tle

For live sub-satellite position, see the globe view (requires WebGL).

§ Visibility from observer

Set your observer location to see the next 7 days of passes ≥ 10°. The values pass through the URL so the page stays shareable.

No JS? Fill the form by hand. The geolocation button needs JavaScript.

§ Radio — SatNOGS DB

ModeDescriptionDownlinkUplink
QPSK Data Downlink System (DDS) 2.408 GHz
BPSK Telemetry 2.264 GHz

2 transmitters · refreshed weekly from db.satnogs.org